Tracking 19909 objects as of 23-Oct-2019
HD Live streaming from Space Station
objects crossing your sky now

VCC C

Track VCC C now!
10-day predictions


NORAD ID: 44430
Int'l Code: 1998-067QQ
Perigee: 411.6 km
Apogee: 416.3 km
Inclination: 51.6 °
Period: 92.7 minutes
Semi major axis: 6784 km
RCS: Unknown
Launch date: November 20, 1998
Source: United States (US)
Launch site: TYURATAM MISSILE AND SPACE COMPLEX (TTMTR)
aabbcc
Your satellite tracking list
Your tracking list is empty




NASA's NSSDC Master Catalog

Two Line Element Set (TLE):
1 44430U 98067QQ  19295.89914617 +.00009341 +00000-0 +15207-3 0  9991
2 44430 051.6409 086.4760 0003472 167.6658 192.4418 15.53401995016219
Source of the keplerian elements: AFSPC